TimeCST,TemperatureF,Dew PointF,Humidity,Sea Level PressureIn,VisibilityMPH,Wind Direction,Wind SpeedMPH,Gust SpeedMPH,PrecipitationIn,Events,Conditions,WindDirDegrees,DateUTC
12:53 AM,5.0,1.0,84,30.16,10.0,SSE,5.8,-,N/A,,Clear,150,2012-12-22 06:53:00
1:53 AM,5.0,1.0,84,30.15,10.0,SE,5.8,-,N/A,,Clear,140,2012-12-22 07:53:00
2:53 AM,5.0,1.0,84,30.11,10.0,SE,10.4,-,N/A,,Clear,140,2012-12-22 08:53:00
3:53 AM,5.0,1.0,84,30.10,10.0,Calm,Calm,-,N/A,,Clear,0,2012-12-22 09:53:00
4:53 AM,3.9,-0.9,80,30.08,10.0,SSE,4.6,-,N/A,,Clear,150,2012-12-22 10:53:00
5:53 AM,3.9,-0.0,84,30.07,10.0,Calm,Calm,-,N/A,,Clear,0,2012-12-22 11:53:00
6:53 AM,3.0,-0.9,84,30.08,10.0,Calm,Calm,-,N/A,,Clear,0,2012-12-22 12:53:00
7:53 AM,3.0,-2.0,80,30.08,10.0,Calm,Calm,-,N/A,,Clear,0,2012-12-22 13:53:00
8:53 AM,-0.9,-5.1,83,30.10,10.0,WNW,3.5,-,N/A,,Clear,290,2012-12-22 14:53:00
9:53 AM,5.0,1.9,87,30.10,10.0,Calm,Calm,-,N/A,,Clear,0,2012-12-22 15:53:00
10:53 AM,12.9,8.1,81,30.09,10.0,WNW,6.9,-,N/A,,Clear,300,2012-12-22 16:53:00
11:53 AM,19.0,12.0,74,30.07,10.0,NW,8.1,-,N/A,,Clear,320,2012-12-22 17:53:00
12:53 PM,21.0,12.9,71,30.06,10.0,North,12.7,-,N/A,,Clear,350,2012-12-22 18:53:00
1:53 PM,21.0,12.9,71,30.06,10.0,North,9.2,-,N/A,,Clear,350,2012-12-22 19:53:00
2:53 PM,19.9,12.0,71,30.07,10.0,NNW,12.7,-,N/A,,Clear,340,2012-12-22 20:53:00
3:53 PM,17.1,10.9,77,30.09,10.0,NNW,9.2,-,N/A,,Clear,340,2012-12-22 21:53:00
4:41 PM,14.0,8.6,79,30.03,10.0,North,10.4,-,N/A,,Mostly Cloudy,350,2012-12-22 22:41:00
4:53 PM,12.9,8.1,81,30.14,10.0,NNW,12.7,-,N/A,,Mostly Cloudy,340,2012-12-22 22:53:00
5:53 PM,10.0,5.0,80,30.16,9.0,NNW,13.8,-,0.00,,Overcast,340,2012-12-22 23:53:00
6:53 PM,8.1,3.9,83,30.18,4.0,North,12.7,-,0.00,Snow,Light Snow,360,2012-12-23 00:53:00
7:53 PM,9.0,3.9,80,30.19,7.0,North,10.4,-,0.00,Snow,Light Snow,360,2012-12-23 01:53:00
8:53 PM,10.0,5.0,80,30.19,9.0,North,11.5,-,0.00,,Overcast,360,2012-12-23 02:53:00
9:53 PM,9.0,5.0,84,30.18,9.0,NNE,9.2,-,N/A,,Overcast,20,2012-12-23 03:53:00
10:53 PM,9.0,5.0,84,30.18,7.0,North,9.2,-,0.00,,Overcast,10,2012-12-23 04:53:00
11:53 PM,9.0,3.9,80,30.18,7.0,North,9.2,-,0.00,Snow,Light Snow,10,2012-12-23 05:53:00